Kenosha, WI

6:28 AM CDT on May 27, 2017 (GMT -0500)
Kenosha Regional

Weather History for KENW - May, 2013

Change the Weather History Date:

Monday, May 6, 2013

  Actual Average Record
Temperature  
Mean Temperature 60 °F -  
Max Temperature 72 °F 57 °F 93 °F (1949)
Min Temperature 48 °F 41 °F 29 °F (1989)
Degree Days  
Heating Degree Days 5    
Growing Degree Days 10 (Base 50)    
Moisture  
Dew Point 38 °F    
Average Humidity 49    
Maximum Humidity 66    
Minimum Humidity 28    
Precipitation  
Precipitation 0.00 in - - ()
Sea Level Pressure  
Sea Level Pressure 30.03 in    
Wind  
Wind Speed 5 mph (NNE)    
Max Wind Speed 13 mph    
Max Gust Speed 18 mph    
Visibility 10 miles    
Events      
Averages and records for this station are not official NWS values.
T = Trace of Precipitation, MM = Missing Value Source: NWS Daily Summary

Daily Weather History Graph

Daily Weather History Graph

Search for Another Location

Airport or City:

Trip Planner

Search our weather history database for the weather conditions in past years. The results will help you decide how hot, cold, wet, or windy it might be!

Date:

Astronomy

May. 06, 2013 Rise Set
Actual Time 5:39 AM CDT 7:57 PM CDT
Civil Twilight 5:08 AM CDT 8:29 PM CDT
Nautical Twilight 4:29 AM CDT 9:08 PM CDT
Astronomical Twilight 3:46 AM CDT 9:51 PM CDT
Moon 3:45 AM CDT (5/6) 4:54 PM CDT (5/6)
Length of Visible Light 15h 20m
Length of Day
14h 18m
Waning Crescent, 11% of the Moon is Illuminated
May 6
Waning Crescent
May 9
New
May 17
First Quarter
May 24
Full
May 31
Last Quarter

Hourly Weather History & Observations

Time (CDT) Temp. Dew Point Humidity Pressure Visibility Wind Dir Wind Speed Gust Speed Precip Events Conditions
12:53 AM 48.9 °F 36.0 °F 61% 30.03 in 10.0 mi North 4.6 mph - N/A   Clear
1:53 AM 48.0 °F 36.0 °F 63% 30.02 in 10.0 mi NNE 3.5 mph - N/A   Clear
2:53 AM 50.0 °F 37.0 °F 61% 30.01 in 10.0 mi Calm Calm - N/A   Overcast
3:53 AM 50.0 °F 37.9 °F 63% 30.01 in 10.0 mi North 4.6 mph - N/A   Overcast
4:53 AM 50.0 °F 39.0 °F 66% 30.02 in 10.0 mi North 4.6 mph - N/A   Overcast
5:53 AM 48.9 °F 37.9 °F 66% 30.03 in 10.0 mi North 5.8 mph - N/A   Overcast
6:53 AM 48.9 °F 37.9 °F 66% 30.05 in 10.0 mi North 4.6 mph - N/A   Clear
7:53 AM 54.0 °F 39.9 °F 59% 30.07 in 10.0 mi NE 4.6 mph - N/A   Partly Cloudy
8:53 AM 60.1 °F 42.1 °F 51% 30.07 in 10.0 mi NNE 6.9 mph - N/A   Mostly Cloudy
9:53 AM 64.0 °F 37.9 °F 38% 30.06 in 10.0 mi North 6.9 mph - N/A   Mostly Cloudy
10:53 AM 66.9 °F 39.9 °F 37% 30.06 in 10.0 mi NE 10.4 mph - N/A   Mostly Cloudy
11:53 AM 69.1 °F 41.0 °F 36% 30.05 in 10.0 mi East 9.2 mph - N/A   Mostly Cloudy
12:53 PM 72.0 °F 39.9 °F 31% 30.04 in 10.0 mi NE 12.7 mph 18.4 mph N/A   Overcast
1:53 PM 71.1 °F 36.0 °F 28% 30.03 in 10.0 mi NNE 12.7 mph - N/A   Mostly Cloudy
2:53 PM 72.0 °F 37.9 °F 29% 30.02 in 10.0 mi NE 8.1 mph 17.3 mph N/A   Clear
3:53 PM 71.1 °F 36.0 °F 28% 30.01 in 10.0 mi ENE 9.2 mph - N/A   Clear
4:53 PM 70.0 °F 37.0 °F 30% 30.00 in 10.0 mi NE 6.9 mph - N/A   Clear
5:53 PM 63.0 °F 42.1 °F 46% 30.01 in 10.0 mi East 8.1 mph - N/A   Clear
6:53 PM 57.0 °F 41.0 °F 55% 30.02 in 10.0 mi NE 5.8 mph - N/A   Clear
7:53 PM 57.0 °F 37.9 °F 49% 30.02 in 10.0 mi Calm Calm - N/A   Clear
8:53 PM 53.1 °F 36.0 °F 52% 30.03 in 10.0 mi NNE 3.5 mph - N/A   Clear
9:53 PM 54.0 °F 37.0 °F 53% 30.04 in 10.0 mi NE 4.6 mph - N/A   Clear
10:53 PM 54.0 °F 37.9 °F 55% 30.03 in 10.0 mi Calm Calm - N/A   Clear
11:53 PM 52.0 °F 36.0 °F 54% 30.03 in 10.0 mi NNW 3.5 mph - N/A   Clear